CAPE
2760 2900 2684 2267 2134 1982 1969 2109 2030 1874 1690 1563 1471 1268 1253 1347 1340 1837 1844 1974 2136 2998 2262 2360 2841 2853 2907 3083 3032 3256 3328 3394 3439 3977 3893 3116 3546 3868 3481 3710 3451 3532 3750 3564 3266 3535 3625 3530 3073 3110 2790 2581 2859 2784 2316 2191 2391 2193 2694 2456 1714 2181 2596 2141 1792 2002 2563 3340 2954 2734 2838 3033 2746 3221 2449 2632 2778 3602 3655 3714 3759 3952 3522 3212 3156
2112 2101 2351 2560 2072 2108 1895 1919 1964 1884 1675 1763 1371 1153 1153 1256 1152 1149 1659 1652 1778 1819 2339 2318 2358 2453 2416 2326 2610 2704 3002 2954 3386 3471 3704 3382 3849 3490 3417 3195 3502 3636 3698 3343 3322 3150 3026 3086 3505 3364 2947 2526 2709 2802 2403 2326 2209 1824 1851 2889 2242 2446 2613 2016 2107 2210 2193 2452 2519 2740 2996 2593 2488 3228 4029 3653 2989 3084 2873 2839 3195 3154 2926 2898 3496
2240 1569 2042 1992 2165 2219 2122 2022 1936 1937 1661 1531 1481 1061 1052 1093 1128 1097 1232 1476 1583 1766 1820 2167 2292 2355 2217 2219 2216 2317 2686 2775 3062 3326 3475 3527 3532 3327 3482 3020 3244 3414 3515 3469 3232 2904 2969 3102 3349 3248 3274 2626 2350 2358 2488 2387 2024 1889 1694 1668 1699 1801 2216 2457 2139 2342 2350 2360 2823 3128 2810 2990 3376 2976 3179 3583 3488 3362 3282 3219 3137 2946 2791 2872 2383
1787 1776 1923 1806 1883 2284 2216 2143 2080 1862 1692 1540 1305 1160 1019 898 1218 1082 966 1056 1304 1612 1754 1789 2117 2261 2210 2158 1975 2022 2400 2634 2760 3045 3240 3334 3259 3130 3026 2922 2858 3073 3345 3460 3411 3222 3098 3006 3043 3128 2706 2628 2480 2260 2171 2112 2092 1941 1696 1522 1334 1367 1475 2757 2489 2186 2358 2332 2541 2856 3035 3262 3410 3653 3640 3319 3115 3121 3047 3145 3387 3459 3230 2616 2600
1511 1340 970 999 1357 1921 1996 2125 2087 1883 1651 1454 1296 952 814 820 883 1089 923 865 1017 1379 1669 1693 1715 2045 2045 1956 1973 1767 2302 2245 2400 2404 2748 2957 3003 2895 2808 2830 2544 2934 3183 3232 3659 3025 2942 2899 2990 3132 2878 2579 2650 2394 2098 1965 1985 2036 2070 2021 1938 1518 2026 1949 2241 2486 2306 2522 2645 3007 3371 3452 3556 3672 3745 3599 3455 3275 3297 3485 3532 3503 3294 3050 2923
2084 1208 1009 1576 1187 1668 1741 2062 2052 1985 1716 1414 1168 961 771 639 729 888 945 735 295 892 1409 1669 1632 1867 1872 1736 2099 1618 2084 2176 1954 1897 2069 2608 2784 2760 2570 2502 2762 2824 2983 3074 2994 2974 2772 2626 2408 2653 2711 2652 2376 2650 2400 2204 2071 1997 1916 1862 1949 1896 1780 1920 2245 2475 2574 2335 2187 2279 3283 3847 3934 3460 2968 2786 2666 2895 3293 3757 3831 3662 3412 3229 3112
1447 1823 1735 1075 1480 1983 1538 1515 1761 1909 1984 1670 1085 768 647 553 626 752 797 808 309 350 623 1480 1644 1704 1750 1652 1852 2008 1674 2063 2083 1960 1824 1925 2301 2596 2507 2374 2247 2380 2741 2775 2660 2539 2410 2395 2380 2355 2448 2381 2203 1916 2007 2152 2022 1943 1897 1755 1654 2305 2142 1819 1586 1678 2065 2469 2864 3399 3442 3322 3182 2993 2985 3139 3575 3787 3678 3208 3157 3273 3633 3604 3475
1289 1663 1322 972 836 1288 1695 1326 1216 1328 1329 1523 1332 581 170 366 37 771 835 758 691 297 423 651 1397 1673 1699 1583 1568 1860 1860 1825 1994 2178 2154 1990 1842 1882 2080 2196 2228 2099 1949 1957 1955 1928 1884 1710 1702 1916 2177 2193 2135 2027 1674 1875 2061 2026 1937 1777 1731 1633 1646 1888 2255 2636 2823 2944 2991 2843 2902 2958 3008 3285 3454 3896 3909 3162 2696 3248 3123 2633 2305 2542 3496
1084 1325 1028 857 599 900 1360 2352 2082 2152 2008 1328 962 892 628 636 394 718 686 871 823 646 252 429 540 1381 1707 1626 1547 1651 1872 1859 1912 2175 2219 2154 2074 1863 1736 1788 1951 1952 1823 1694 1658 1633 1552 1503 1447 1429 1764 2737 2335 2149 1893 2101 1959 1907 1729 1429 1590 2010 1868 1541 1425 1511 1912 2470 2714 2960 3088 3214 3464 3761 3590 2940 2501 1822 1510 1847 2024 2340 2719 2928 3079
1575 1707 1884 1799 1794 1593 1630 1971 2127 2189 2068 1563 1202 1042 844 726 732 760 1123 823 824 807 442 142 426 584 1377 1664 1599 1690 1808 1905 2065 2059 2297 2204 2049 2026 1926 1643 1560 1625 1641 1496 1309 1238 1150 953 918 2109 3018 2996 2223 1821 1704 1942 2550 1970 1693 1501 1336 1657 2016 2044 1965 1923 2053 2361 2633 2763 2765 2710 2612 2455 2277 2116 2050 2283 2434 2498 2664 2776 2864 2981 3092
1281 1642 1764 1701 1773 2053 1911 1743 1332 1433 1860 1795 1767 1432 1218 1158 1088 1313 1495 1147 978 506 640 290 190 449 640 1395 1611 1673 1848 1972 1991 1923 2094 2319 2171 1962 1890 1797 1515 1313 1300 1270 1075 832 840 811 676 870 2760 4008 3277 1683 1375 1370 1344 1777 2282 2731 2576 1810 1889 2355 2600 2658 2576 2454 2424 2577 2645 2550 2496 2456 2432 2346 2058 1975 2080 2217 2393 2562 2719 2732 2297
975 787 828 820 839 1028 1498 1750 1800 1624 1347 1412 1681 1815 1616 1707 1577 1093 751 1198 1336 459 626 424 166 268 526 788 1342 1544 1630 1820 2023 1990 1950 2129 2262 2155 1926 1779 1624 1360 1051 964 972 844 572 362 262 211 197 124 519 2352 1771 1208 1098 1108 1153 1359 1958 3235 3228 2835 2638 2739 2916 2915 2921 2977 2918 2816 2697 2618 2543 2353 2125 1964 1941 1922 1680 1706 1506 1211 1006
836 845 738 659 659 758 929 1003 1236 1562 1666 1798 1812 1915 2237 2103 1515 1419 1326 1003 1186 1110 392 732 380 151 357 619 922 1298 1478 1578 1744 1951 1974 1946 2085 2173 2013 1883 1697 1432 1120 814 781 884 874 557 356 242 88 938 1747 1358 1658 1508 1166 1007 996 996 1020 1121 1405 2364 2822 2803 2780 2834 2730 2596 2645 2688 2645 2620 2573 2405 2289 2212 2036 1787 1456 1142 1000 891 801
583 652 666 691 680 732 792 949 946 942 1343 1464 1646 1942 1698 1653 1875 1769 1574 1413 1082 1016 1008 644 699 829 241 262 782 1016 1271 1395 1548 1618 1713 1808 1835 1904 1894 1835 1690 1471 1264 1081 890 689 606 617 417 337 199 211 166 268 1118 1602 1356 1080 918 830 806 934 1001 1022 989 1449 2230 2616 2819 2919 3075 3263 3129 2807 2676 2611 2492 2320 2175 2020 1861 1732 1666 1602 1552
397 454 507 522 608 646 629 672 760 750 938 1410 1366 1316 1362 1587 1727 1858 1731 1531 1417 1346 1266 962 884 887 1122 894 186 612 984 1164 1301 1387 1369 1363 1529 1632 1630 1616 1576 1492 1314 1092 944 820 745 418 423 386 289 218 164 246 75 752 1382 1247 1040 867 761 765 796 879 954 867 721 732 878 932 958 1166 1818 2339 2549 2612 2776 2930 2853 2699 2483 2242 2059 1968 1806
401 435 452 458 458 482 528 529 591 832 872 1013 1352 1311 1186 1380 1659 1704 1659 1544 1404 1444 1231 992 836 867 967 1191 1445 547 205 298 924 1212 1242 1174 1146 1300 1388 1427 1456 1397 1295 1192 1002 601 205 277 296 299 278 290 558 470 638 415 727 1398 1303 1188 1065 953 916 985 1036 1013 913 750 614 541 572 564 507 417 726 1102 1347 1578 1891 2250 2299 2241 2079 1930 1825
228 285 352 401 393 351 352 408 391 463 573 775 769 1291 1166 1207 1369 1713 1712 1790 1653 1490 1709 1534 1298 1078 933 1027 1360 1689 1083 359 88 0 616 1126 1148 1074 1088 1207 1308 1324 1183 987 917 790 74 185 297 356 307 275 338 74 16 405 468 863 1508 1806 1779 1600 1420 1304 1200 1152 1125 1071 1000 1137 1331 1413 1341 1098 746 134 305 592 751 970 1167 1629 1926 1934 1953
146 176 209 281 352 381 402 384 393 433 511 608 692 859 1101 1102 1205 1446 1544 1555 1776 1907 1733 1537 1675 1686 1487 1074 986 1379 1674 1765 1425 1053 890 693 0 597 982 950 1040 1131 1123 964 496 33 45 644 1002 381 624 898 1006 1018 834 720 725 650 675 759 1010 1376 1664 2043 2292 2383 2415 2244 2175 2190 2223 2225 2071 1846 1559 1200 793 612 712 702 674 762 998 1577 1862
0 62 131 156 193 241 283 345 394 480 464 520 606 777 856 982 1179 1198 1382 1434 1412 1446 1505 1521 1465 1536 1564 1394 1366 1429 1384 1690 1786 1684 1580 1476 1386 1174 863 500 660 820 877 880 805 472 150 404 894 851 363 172 2 0 424 640 1095 1136 1086 1019 958 858 744 423 505 612 835 1274 1752 2157 2314 2307 2242 2113 1959 1785 1536 1271 1132 1108 1088 936 812 744 803
0 0 0 3 86 113 142 203 267 334 417 463 489 927 1266 1191 1089 1155 1397 1480 1489 1448 1337 1476 1459 1402 1410 1366 1212 1199 1222 1470 1598 1569 1615 1562 1665 1784 1706 1535 1284 931 633 703 700 694 534 370 443 56 1 2 0 0 0 1 122 436 766 834 775 697 564 402 355 205 156 323 485 705 848 954 1038 1090 1150 1303 1434 1421 1361 1318 1311 1272 1123 976 913
0 1 0 0 0 0 0 35 128 168 220 291 475 705 1195 1306 1294 1273 1200 1233 1508 1675 1695 1656 1611 1572 1555 1502 1493 1498 1556 1530 1471 1429 1293 1292 1542 1688 1830 1870 1768 1578 1340 1048 756 702 653 710 659 550 52 0 0 0 0 0 254 521 561 590 626 670 677 688 682 995 589 535 444 336 545 835 952 980 989 976 995 1065 1171 1335 1441 1466 1411 1305 1180
2 0 1 1 0 0 0 0 0 0 119 189 204 267 323 378 476 1022 1343 1457 1615 1684 1682 1689 1647 1562 1455 1388 1871 1824 1906 1893 1896 1727 1433 1063 1035 1312 1504 1687 1844 1897 1706 1513 1305 1125 1021 931 839 864 938 908 863 828 806 765 684 585 628 634 678 746 796 821 878 934 984 962 903 832 929 934 985 1207 1284 1258 1224 1229 1338 1475 1611 1646 1598 1497 1400
0 0 3 7 2 0 0 0 0 0 0 244 117 177 212 250 327 525 672 1357 1378 1122 959 1428 1689 1669 1495 1345 1523 1643 1548 1742 1576 1660 1739 1616 1398 1204 1122 1287 1460 1636 1736 1722 1642 1522 1468 1378 1262 1249 1217 1092 1104 1204 1216 1223 1219 1206 1186 1185 1215 1178 1122 1125 1170 1209 1231 1258 1220 1201 1202 1356 1500 1885 2044 1990 1934 1808 1614 1571 1622 1614 1573 1521 1498
0 0 3 10 0 2 0 0 0 0 40 78 0 1 64 127 175 270 724 1554 1414 1104 951 1003 1262 1451 1640 1735 2188 1801 1810 2085 2042 1898 1787 1718 1684 1510 1437 1354 1256 1176 1264 1378 1486 1570 1548 1511 1471 1518 1578 1602 1546 1373 1257 1374 1436 1482 1511 1476 1520 1578 1617 1635 1622 1628 1595 1569 1527 1469 1371 1262 1303 1259 1590 2208 2536 2621 2595 2471 2166 1830 1784 1754 1752
0 0 0 0 2 0 0 0 0 0 10 1 0 0 22 47 100 206 698 467 482 702 767 814 924 993 990 1089 1298 1421 1699 1802 1870 1771 1577 1455 1507 1536 1499 1452 1486 1481 1354 1208 1156 1302 1461 1497 1520 1521 1503 1466 1530 1561 1499 1541 1723 1790 1854 1958 2037 1998 1957 1922 1908 1895 1854 1774 1725 1679 1640 1569 1456 1378 1228 1290 1281 1350 1696 2131 2550 2543 2321 2105 1976
0 0 0 0 0 0 0 0 0 0 0 0 0 25 8 6 92 106 52 40 116 190 411 588 798 936 946 982 1132 1258 1366 1391 1505 1583 1521 1480 1404 1291 1304 1334 1350 1412 1416 1394 1486 1376 1249 1365 1489 1497 1488 1504 1501 1486 1619 1775 1858 1959 2028 2095 2106 2090 2090 2059 1995 1999 1969 1888 1846 1810 1765 1700 1677 1639 1598 1519 1275 1171 1058 971 1225 1724 2067 2210 2213
6 3 0 0 0 0 0 0 0 0 0 0 1 19 0 2 2 16 1 0 4 50 30 57 220 515 755 837 946 1055 1181 1317 1595 1554 1467 1368 1273 1220 1194 1395 1439 1382 1331 1380 1506 1598 1694 1620 1407 1469 1477 1486 1467 1472 1510 1458 1424 1533 1611 1649 1689 1734 1856 1994 2059 2026 1998 1993 1977 1946 1888 1859 1793 1715 1627 1591 1588 1574 1485 1337 1011 740 757 1198 1703
6 1 0 0 0 0 2 3 0 2 3 0 0 0 0 4 0 0 0 0 0 0 0 0 0 35 215 432 720 944 1032 1097 1136 1256 1265 1251 1531 1772 1844 1742 1594 1474 1417 1467 1498 1553 1695 1795 1818 1698 1695 1661 1596 1582 1545 1490 1402 1263 1199 1302 1418 1442 1466 1516 1663 1735 1791 1896 1950 1945 1929 1875 1812 1728 1640 1595 1542 1544 1538 1464 1369 1279 835 509 570
4 0 0 0 0 2 17 11 10 5 0 0 0 0 0 0 0 0 0 0 0 0 0 0 0 0 0 7 226 422 701 871 965 949 975 1194 1369 1585 1620 1458 1316 1303 1374 1423 1446 1545 1592 1616 1707 1766 1742 1699 1654 1585 1480 1422 1386 1288 1206 1258 1267 1394 1519 1553 1563 1603 1573 1427 1416 1418 1606 1789 1778 1719 1629 1545 1528 1548 1450 1312 1196 1086 953 987 904
0 0 2 0 0 0 10 13 3 9 5 0 0 0 0 0 0 0 0 0 0 0 0 0 0 0 0 0 0 9 190 377 487 565 670 1080 1407 1332 1282 1185 1104 1115 1193 1282 1394 1416 1504 1544 1587 1610 1675 1717 1631 1459 1298 1164 1105 1184 1471 1553 1520 1564 1669 1642 1524 1485 1507 1548 1527 1414 1342 1338 1430 1484 1453 1533 1617 1543 1378 1244 1184 1150 1251 1315 1312
0 0 1 1 0 0 0 0 5 5 1 6 18 6 0 0 0 0 0 0 0 0 0 0 0 0 0 0 0 0 0 0 134 236 306 342 824 1187 1142 1050 972 1043 1072 1052 1139 1272 1405 1438 1516 1578 1627 1626 1677 1777 1929 1952 1970 2004 1966 1868 1763 1734 1633 1442 1366 1472 1484 1460 1449 1454 1460 1400 1282 1241 1320 1476 1468 1459 1331 1202 1191 1193 1196 1293 1388
0 0 0 1 2 2 0 9 18 8 15 22 8 1 0 0 0 0 0 0 0 0 0 0 0 0 0 0 0 0 0 0 0 43 133 199 211 210 240 302 420 615 792 834 910 1033 1144 1271 1371 1420 1420 1379 1378 1501 1571 1640 1679 1696 1665 1619 1659 1717 1695 1650 1498 1315 1346 1347 1378 1361 1291 1224 1161 1158 1254 1432 1537 1536 1441 1393 1238 1247 1260 1252 1342
0 0 0 2 3 4 4 9 40 57 35 15 9 7 3 0 0 0 0 0 0 0 0 0 0 0 0 0 0 0 0 0 0 0 0 0 40 98 128 137 187 247 261 315 414 607 723 837 1022 1158 1233 1296 1457 1515 1524 1583 1635 1604 1577 1567 1533 1490 1480 1505 1522 1493 1422 1406 1344 1237 1082 958 874 1010 1172 1362 1450 1423 1366 1373 1362 1222 1276 1300 1315
0 0 0 0 0 0 0 1 21 30 28 26 15 9 11 18 18 4 0 0 0 0 0 0 0 0 0 0 0 0 0 0 0 0 0 0 0 0 0 0 20 25 208 345 469 593 757 1017 1344 1586 1644 1550 1569 1639 1668 1734 1798 1778 1750 1670 1630 1527 1524 1560 1553 1493 1414 1378 1373 1364 1244 1107 1001 1028 1066 1182 1253 1267 1294 1341 1344 1304 1249 1132 1174
0 11 13 10 8 7 7 24 46 39 37 44 31 32 23 12 4 0 0 0 0 0 0 0 0 0 8 1 0 0 0 0 0 0 0 0 0 0 0 0 0 0 95 402 575 692 786 841 846 883 1020 1227 1388 1506 1464 1398 1418 1468 1514 1503 1487 1428 1495 1552 1692 1722 1520 1495 1442 1433 1332 1198 1237 1306 1393 1383 1355 1300 1271 1285 1295 1316 1318 1299 1229
0 0 5 16 30 32 28 12 30 28 17 22 24 22 16 11 9 5 0 0 0 0 0 0 0 8 12 2 0 0 0 0 0 0 0 0 0 0 0 0 0 0 39 277 399 579 802 969 1094 1215 1255 1280 1369 1285 1288 1194 1208 1374 1450 1591 1690 1699 1677 1587 1639 1665 1557 1499 1495 1488 1466 1490 1482 1392 1398 1467 1495 1434 1333 1279 1296 1328 1383 1364 1294
0 0 2 9 8 4 6 14 16 25 34 11 8 11 17 14 17 8 3 0 0 0 0 0 3 6 10 15 10 10 7 1 0 0 0 0 0 0 0 0 0 1 1 5 374 450 449 521 669 798 934 1072 1281 1380 1277 1119 1115 1266 1259 1316 1406 1414 1516 1557 1670 1706 1599 1585 1574 1514 1465 1574 1580 1564 1505 1492 1450 1387 1343 1305 1346 1406 1388 1326 1247
2 2 2 1 1 0 2 1 5 14 15 20 20 6 14 13 14 16 17 14 10 5 0 4 13 14 15 24 10 8 2 0 0 0 0 0 0 0 0 0 9 13 5 0 4 13 328 463 600 587 614 672 812 997 1086 1236 1318 1292 1426 1588 1803 1724 1617 1526 1516 1544 1548 1549 1583 1612 1633 1570 1480 1379 1396 1506 1595 1527 1366 1316 1288 1356 1432 1449 1408
0 1 2 2 4 4 3 4 9 20 22 33 23 29 33 25 15 6 3 6 18 20 19 10 3 2 1 0 0 0 0 0 0 0 0 0 0 0 0 0 0 0 2 2 3 3 2 2 3 196 470 572 617 701 843 987 1134 1338 1434 1500 1454 1440 1388 1389 1312 1330 1354 1317 1262 1295 1330 1312 1338 1415 1490 1522 1458 1415 1481 1572 1622 1626 1585 1565 1593
3 0 0 0 0 3 11 13 12 8 21 28 18 22 22 15 3 8 21 16 2 2 11 5 2 2 2 0 0 0 0 0 0 0 0 0 0 0 0 0 0 1 1 0 0 0 2 3 4 3 55 176 287 360 416 439 529 648 831 944 923 915 936 1042 1094 1092 1137 1218 1287 1386 1412 1416 1432 1442 1470 1477 1417 1375 1432 1519 1589 1584 1576 1550 1605
8 5 8 2 0 0 1 7 11 17 13 11 13 8 6 18 22 32 11 9 12 15 6 2 3 5 2 0 0 0 0 0 0 0 0 0 0 0 0 0 0 0 0 1 1 1 1 2 2 4 5 5 61 242 333 464 502 507 616 679 768 839 901 989 1035 1078 1145 1188 1310 1394 1368 1396 1415 1375 1321 1284 1299 1292 1279 1278 1285 1367 1468 1535 1580
16 14 12 8 6 5 4 1 0 1 5 9 5 6 12 18 29 26 26 24 19 14 8 9 13 27 14 10 3 0 0 0 0 0 0 0 0 0 0 0 0 0 0 0 1 1 2 2 2 2 4 4 4 96 230 311 384 446 466 516 630 749 881 902 956 977 1021 1057 1163 1346 1526 1546 1567 1553 1541 1482 1428 1359 1326 1341 1356 1357 1343 1351 1472
17 18 17 12 8 8 9 6 4 1 0 0 0 8 10 5 3 8 12 16 8 6 5 8 12 16 17 15 10 6 3 1 0 0 0 0 1 1 0 0 1 0 0 1 2 2 2 1 2 2 3 3 3 2 1 25 98 174 246 308 380 432 522 579 666 737 806 839 904 1032 1156 1284 1385 1431 1468 1448 1515 1512 1413 1364 1280 1300 1346 1391 1374
17 10 10 13 12 8 6 3 6 9 6 12 15 14 9 4 2 0 8 13 15 15 17 6 4 6 8 10 10 10 8 5 2 0 1 1 0 0 0 0 0 0 0 1 2 2 2 2 2 1 1 0 1 1 2 2 3 3 4 5 5 152 171 256 311 382 460 550 612 682 789 960 1100 1153 1258 1315 1336 1341 1328 1306 1296 1309 1276 1251 1229
13 9 8 9 9 7 5 6 10 13 28 24 12 11 16 7 5 8 8 11 20 14 6 6 9 10 10 11 8 6 3 2 2 3 2 0 0 0 0 0 0 0 0 0 0 1 0 0 0 1 0 0 0 0 0 1 1 0 0 0 1 4 4 2 23 36 63 327 422 524 629 684 755 816 765 733 792 1123 1207 1316 1344 1354 1330 1312 1308
10 10 8 7 8 11 18 15 24 18 15 15 20 18 12 8 9 11 16 10 4 5 6 8 12 12 8 4 2 0 0 2 3 1 0 0 0 0 0 0 0 0 0 0 0 0 0 0 0 0 0 0 0 0 0 0 0 0 0 0 0 0 0 0 0 0 0 0 0 125 351 531 656 714 660 639 657 653 606 563 683 915 1146 1252 1267
14 9 10 10 12 15 15 20 20 17 14 22 32 38 37 26 13 11 15 17 12 8 3 7 6 1 0 0 4 7 6 2 0 0 0 0 0 0 0 0 0 0 0 0 0 0 0 0 0 0 0 0 0 0 0 0 0 0 0 0 0 0 0 0 0 0 0 0 0 0 0 15 176 248 260 231 238 252 239 264 258 1 3 5 336
12 18 18 18 20 15 15 19 24 24 27 27 28 36 43 37 26 18 9 8 10 11 8 5 5 8 9 9 10 8 4 0 1 2 3 3 2 2 0 0 0 0 0 0 0 1 0 0 0 0 0 0 0 0 0 0 0 0 0 0 0 0 0 0 0 0 0 0 0 0 0 0 0 0 126 159 177 27 1 3 4 4 6 5 193
24 27 27 20 23 22 22 23 24 21 15 22 27 28 30 21 10 15 13 10 8 5 4 4 1 4 5 8 9 6 3 3 5 7 4 3 3 2 2 2 6 0 0 0 0 0 0 0 0 0 0 0 0 0 0 0 0 0 0 0 0 0 0 0 0 0 0 0 0 0 0 0 0 0 0 1 0 66 210 262 287 305 331 334 338
32 27 31 32 34 35 33 32 23 16 19 22 14 10 8 7 10 7 14 13 7 5 5 5 6 6 7 6 6 3 2 2 2 3 3 4 6 5 3 3 1 1 1 0 0 0 0 0 0 0 0 0 0 0 0 0 0 0 0 0 0 0 0 0 0 0 0 0 0 0 0 0 0 0 0 0 1 0 0 0 0 0 0 0 0
16 20 21 24 32 40 33 26 22 24 21 20 18 16 14 7 3 3 8 7 10 11 11 10 8 6 6 7 5 3 3 4 6 8 8 8 9 6 4 2 0 0 1 2 1 1 0 0 0 0 0 0 0 0 0 0 0 0 0 0 0 0 0 0 0 0 0 0 0 0 0 4 0 0 0 0 0 0 0 0 0 0 0 0 0
Wind_Speed
12 9 9 8 9 8 9 10 10 10 11 11 10 11 12 10 9 8 7 6 6 6 2 3 2 1 0 1 3 3 3 4 5 6 5 4 3 4 3 4 5 3 2 1 0 3 4 3 2 1 3 4 4 2 1 3 1 1 2 3 3 4 5 6 5 6 9 6 4 4 6 7 5 6 5 3 4 5 6 6 6 7 8 9 11
20 22 14 8 9 9 9 10 11 12 10 13 11 11 12 13 11 13 9 7 7 6 5 4 3 2 1 0 0 3 3 3 4 6 6 4 4 3 3 4 4 3 3 3 1 1 0 2 3 3 3 4 5 5 2 1 1 1 1 2 2 1 4 6 4 5 6 9 8 9 7 6 6 6 8 5 5 5 6 6 7 9 9 9 11
23 20 21 20 9 10 11 11 11 12 11 14 13 12 13 14 13 13 12 10 9 7 5 4 4 3 2 1 3 1 3 3 3 5 5 5 4 4 4 4 4 3 3 3 4 3 2 1 1 1 3 3 4 5 5 2 1 1 1 1 1 2 3 5 7 4 3 5 5 6 7 7 7 5 5 6 6 7 7 7 7 9 11 12 12
19 22 23 19 14 11 11 13 13 11 12 13 14 14 14 14 15 13 14 13 10 8 6 5 5 3 3 2 5 3 4 4 4 5 6 6 5 4 4 4 4 4 3 3 3 3 3 2 2 2 1 1 2 3 4 4 3 1 1 1 1 1 3 5 5 5 5 4 7 6 7 7 6 6 6 6 5 5 7 8 9 9 10 9 10
24 23 22 17 15 18 17 14 14 14 12 13 13 14 16 15 16 15 14 14 12 11 8 6 5 3 2 2 3 4 4 4 4 4 5 6 6 5 4 5 5 4 4 3 2 2 2 2 3 2 2 2 1 0 1 2 3 2 2 1 2 1 4 5 5 6 6 5 5 6 7 7 7 6 7 6 5 6 7 8 9 9 8 9 9
24 24 22 18 15 18 21 21 21 17 14 13 12 13 14 16 16 16 16 15 15 12 10 7 6 4 1 1 1 3 2 4 5 5 4 5 6 6 5 5 6 5 5 4 3 2 1 2 1 1 2 3 2 1 0 0 1 2 2 2 2 2 3 3 5 5 6 4 4 4 7 6 6 6 4 4 3 3 4 5 7 8 8 8 9
24 26 31 29 23 21 23 22 22 25 25 24 23 19 15 13 16 17 17 16 15 15 12 10 7 4 2 1 0 1 2 2 3 4 4 4 5 6 6 5 6 7 7 6 6 5 3 2 2 2 1 1 1 1 0 1 0 1 1 0 1 2 1 1 1 2 2 2 2 3 3 3 5 2 2 3 5 7 7 5 6 8 10 12 11
28 28 29 28 25 22 25 25 24 24 24 24 23 23 24 24 nan 16 19 17 15 16 14 11 10 7 3 2 1 2 1 1 1 2 3 4 4 5 5 6 6 6 7 7 8 7 6 4 4 5 5 4 4 3 4 2 3 1 1 2 2 2 1 1 2 2 2 2 2 2 3 2 5 6 6 8 8 8 8 10 7 8 8 11 13
32 33 32 27 19 18 25 28 24 24 26 26 25 25 24 23 24 23 17 18 18 15 16 14 12 10 7 4 3 3 4 3 3 3 3 3 4 4 6 6 6 6 6 6 6 7 8 8 6 6 6 5 5 4 3 5 6 5 4 6 5 5 4 4 4 4 4 5 5 7 7 6 6 7 7 6 4 3 3 8 8 8 9 8 9
29 29 29 27 25 26 29 31 27 26 28 29 29 28 26 26 25 26 28 20 17 18 15 16 13 11 11 8 6 5 5 5 4 7 6 4 4 3 4 5 6 7 7 6 6 6 6 8 9 7 7 7 7 7 6 5 5 6 7 7 6 7 7 7 7 7 7 7 6 7 7 6 6 6 5 5 3 3 4 5 6 6 9 9 11
33 32 33 32 32 33 33 32 29 30 30 30 31 30 30 31 31 31 33 33 26 19 16 14 15 13 11 11 8 6 7 7 8 8 8 8 5 3 3 4 5 6 7 7 6 6 6 7 7 7 8 7 7 7 7 5 4 4 5 7 8 9 9 9 9 9 9 8 7 8 7 6 5 5 5 4 6 5 6 8 7 9 9 10 11
34 35 36 36 36 36 34 31 30 30 30 31 32 32 33 35 35 33 27 21 20 22 18 14 13 16 14 12 10 8 8 8 10 9 8 8 7 5 3 3 4 5 5 7 7 7 6 7 8 8 9 8 12 11 7 5 5 4 3 2 4 7 10 12 11 11 11 9 8 7 8 6 5 7 5 6 3 4 5 6 7 10 10 10 12
31 34 34 35 35 35 35 34 34 32 32 30 28 27 30 34 33 25 18 15 18 16 17 19 16 14 16 14 12 10 9 8 10 12 10 9 8 6 5 4 3 5 5 5 6 7 8 8 8 9 nan 8 9 13 13 10 6 5 4 3 2 3 4 6 10 11 11 9 8 6 7 6 5 6 8 6 9 8 9 8 9 8 10 10 11
30 31 33 33 32 32 34 35 36 35 32 32 31 31 31 29 27 21 16 17 22 22 21 23 25 23 19 17 15 13 12 11 10 11 12 11 9 8 6 6 5 4 6 6 6 7 8 9 8 8 9 10 11 12 15 14 13 12 9 9 8 5 3 4 4 4 7 8 8 7 8 11 5 7 7 9 9 7 8 8 11 11 10 9 11
32 31 32 31 30 30 32 36 36 36 35 33 31 30 29 28 26 22 22 27 30 28 27 26 25 26 26 22 18 16 14 13 13 12 12 12 11 10 8 7 7 7 7 8 9 9 9 9 9 9 11 11 11 10 nan 15 15 13 12 11 9 9 8 8 9 10 9 8 8 7 8 9 7 6 7 11 11 11 13 13 14 15 13 12 12
37 34 32 31 30 29 30 32 33 34 35 34 32 29 29 29 29 28 28 29 28 27 28 30 27 25 23 24 22 17 16 15 16 15 14 13 12 14 11 10 9 9 10 10 11 11 12 11 10 10 10 11 10 8 9 14 16 15 13 12 12 11 9 9 8 9 10 10 10 9 9 8 8 7 8 9 10 11 11 13 17 16 13 11 9
41 40 37 35 34 32 32 32 30 29 31 32 32 31 30 31 32 32 31 32 31 29 30 30 29 24 23 23 23 22 22 19 nan nan 14 13 16 17 15 14 12 11 11 13 14 15 nan 15 14 13 12 13 11 nan nan 13 17 16 15 14 13 12 10 13 13 11 9 9 8 7 7 7 7 7 8 8 9 12 15 14 14 16 15 13 13
42 41 40 37 33 32 31 30 27 25 25 28 30 32 33 34 33 33 32 33 34 32 30 30 30 28 25 23 24 28 33 41 41 27 15 14 nan 19 18 17 15 13 12 13 15 nan nan 14 17 17 16 16 15 15 14 17 17 16 17 17 15 11 11 16 19 18 14 11 9 7 6 5 5 5 6 7 8 15 19 15 17 22 20 19 16
nan nan 41 37 34 31 30 30 29 27 26 27 29 31 33 35 35 34 33 34 34 34 33 32 31 31 29 28 30 37 37 20 10 13 22 22 21 20 20 20 17 16 16 15 16 16 16 14 12 15 18 18 nan nan 19 22 20 19 18 18 13 9 11 20 20 17 20 22 18 16 13 10 11 13 12 10 11 16 22 20 22 26 23 21 21
nan nan nan nan nan 35 33 31 30 29 28 29 31 30 31 33 34 35 33 32 33 34 34 33 30 31 32 33 33 35 22 12 8 11 20 24 25 25 25 23 19 17 19 18 18 17 16 16 15 nan nan nan nan nan nan nan 22 20 21 18 12 8 15 22 21 20 21 19 19 21 19 19 18 19 18 18 18 23 24 25 27 30 29 24 23
nan nan nan nan nan nan nan nan 31 30 29 31 33 34 33 32 32 34 33 33 33 34 34 33 31 31 32 33 32 29 21 19 24 27 26 23 24 26 25 24 22 22 22 21 20 19 18 18 19 17 nan nan nan nan nan nan 21 21 20 17 14 12 18 23 21 19 21 20 19 20 21 22 22 21 21 22 22 25 28 30 31 34 34 30 26
nan nan nan nan nan nan nan nan nan nan 32 32 34 35 34 34 33 32 32 32 33 34 34 33 33 34 34 33 32 29 27 26 28 25 21 20 23 25 27 24 24 24 22 22 21 21 21 21 22 19 19 19 19 19 18 20 21 23 18 15 11 12 17 21 23 24 23 22 22 22 22 22 22 22 22 23 24 27 29 31 33 34 36 34 31
nan nan nan nan nan nan nan nan nan nan nan 36 36 35 35 36 36 34 33 33 34 34 34 35 36 36 33 32 31 30 31 29 26 29 28 25 25 27 23 24 23 25 24 21 22 22 24 23 23 20 21 20 20 20 20 19 22 23 18 17 15 13 18 24 24 23 22 21 22 20 21 23 23 24 25 26 27 28 29 30 32 34 34 33 31
nan nan nan nan nan nan nan nan nan nan nan nan nan nan nan 36 37 37 35 36 38 38 37 37 37 36 34 34 35 36 31 29 30 28 31 28 25 26 25 22 22 26 26 25 26 27 26 25 25 22 21 21 21 21 20 21 24 22 21 19 18 18 24 26 26 24 22 22 22 20 19 21 23 23 26 29 29 30 29 29 29 31 33 33 32
nan nan nan nan nan nan nan nan nan nan nan nan nan nan nan nan nan 40 43 44 43 43 42 39 38 36 34 31 29 25 26 28 28 27 24 24 23 24 25 26 24 26 28 26 27 26 25 28 31 33 34 33 32 31 29 25 22 22 21 23 27 31 29 28 27 28 26 25 24 23 23 23 24 24 28 31 32 32 32 31 29 29 30 31 30
nan nan nan nan nan nan nan nan nan nan nan nan nan nan nan nan nan 45 nan nan 44 43 41 39 36 35 35 35 32 27 25 24 23 25 27 25 24 22 23 26 26 28 28 28 26 24 22 20 20 24 28 28 29 31 31 31 28 26 25 27 34 34 34 33 31 31 29 28 28 26 25 28 29 29 30 32 31 29 30 29 28 27 29 29 29
nan nan nan nan nan nan nan nan nan nan nan nan nan nan nan nan nan nan nan nan nan nan nan nan 37 36 35 36 34 32 30 27 26 26 28 28 27 27 29 31 31 33 33 33 33 31 27 26 27 25 28 29 29 29 29 30 31 33 36 38 37 37 38 38 36 34 32 31 31 30 31 32 33 34 33 33 30 30 33 32 29 24 24 27 28
nan nan nan nan nan nan nan nan nan nan nan nan nan nan nan nan nan nan nan nan nan nan nan nan nan nan 37 37 36 34 33 31 31 35 36 36 34 33 32 32 33 34 33 33 34 33 33 32 31 33 33 32 31 33 32 32 33 34 36 40 42 42 41 40 39 37 36 36 35 34 35 36 35 35 36 34 31 30 34 35 31 26 26 28 24
nan nan nan nan nan nan nan nan nan nan nan nan nan nan nan nan nan nan nan nan nan nan nan nan nan nan nan nan 40 39 37 34 32 36 34 33 32 31 31 31 33 34 35 37 33 32 33 32 32 33 34 33 32 31 31 31 31 32 33 37 42 44 45 46 42 40 39 39 36 35 35 37 36 38 39 36 32 32 37 36 33 31 29 29 21
nan nan nan nan nan nan nan nan nan nan nan nan nan nan nan nan nan nan nan nan nan nan nan nan nan nan nan nan nan nan 40 38 35 34 36 38 35 33 31 30 30 32 33 34 36 32 30 31 32 33 33 34 32 31 32 34 34 33 34 36 38 42 44 45 44 42 42 40 38 37 37 39 38 39 40 37 34 36 38 39 35 36 33 29 22
nan nan nan nan nan nan nan nan nan nan nan nan nan nan nan nan nan nan nan nan nan nan nan nan nan nan nan nan nan nan nan nan 38 39 40 39 39 37 37 36 35 34 38 43 37 33 31 31 31 32 32 33 31 30 32 34 35 36 36 37 39 40 42 43 43 43 42 41 39 37 36 38 37 38 40 38 37 38 39 38 37 36 33 29 24
nan nan nan nan nan nan nan nan nan nan nan nan nan nan nan nan nan nan nan nan nan nan nan nan nan nan nan nan nan nan nan nan nan nan 44 43 42 42 40 40 39 40 39 44 40 34 33 31 31 30 32 31 30 31 32 32 34 36 37 37 38 40 42 43 45 46 44 42 40 39 39 39 40 42 43 41 39 37 37 37 35 32 29 28 24
nan nan nan nan nan nan nan nan nan nan nan nan nan nan nan nan nan nan nan nan nan nan nan nan nan nan nan nan nan nan nan nan nan nan nan nan nan nan 44 41 43 44 48 45 40 38 39 35 32 30 31 31 32 33 33 32 32 34 34 33 33 37 42 43 49 47 42 40 40 39 40 41 42 43 43 41 39 36 35 33 32 32 31 28 26
nan nan nan nan nan nan nan nan nan nan nan nan nan nan nan nan nan nan nan nan nan nan nan nan nan nan nan nan nan nan nan nan nan nan nan nan nan nan nan nan nan nan 48 44 43 41 41 39 36 34 34 34 33 33 34 34 35 34 32 31 30 32 35 41 45 43 42 38 37 37 40 42 44 45 43 42 40 36 32 30 32 33 30 29 28
nan nan nan nan nan nan nan nan nan nan nan nan nan nan nan nan nan nan nan nan nan nan nan nan nan nan nan nan nan nan nan nan nan nan nan nan nan nan nan nan nan nan nan 50 47 44 42 42 40 38 37 37 36 35 33 33 35 36 35 35 34 33 35 38 40 41 40 40 39 36 37 39 40 42 43 44 43 39 33 31 33 32 30 31 32
nan nan nan nan nan nan nan nan nan nan nan nan nan nan nan nan nan nan nan nan nan nan nan nan nan nan nan nan nan nan nan nan nan nan nan nan nan nan nan nan nan nan nan 52 49 46 45 44 42 40 39 39 40 40 38 36 36 35 37 37 37 38 38 39 40 41 41 40 38 36 37 38 41 43 44 42 40 37 35 35 36 34 32 34 37
nan nan nan nan nan nan nan nan nan nan nan nan nan nan nan nan nan nan nan nan nan nan nan nan nan nan nan nan nan nan nan nan nan nan nan nan nan nan nan nan nan nan nan nan 57 55 52 50 48 45 43 41 40 40 41 41 40 39 39 40 40 39 39 39 41 43 41 39 38 40 41 41 42 44 45 41 38 39 40 38 36 34 36 37 39
nan nan nan nan nan nan nan nan nan nan nan nan nan nan nan nan nan nan nan nan nan nan nan nan nan nan nan nan nan nan nan nan nan nan nan nan nan nan nan nan nan nan nan nan nan nan 53 52 51 50 49 48 48 49 48 47 44 41 39 38 39 40 39 38 38 40 41 41 39 39 39 38 39 41 43 39 35 38 41 39 37 38 40 40 41
nan nan nan nan nan nan nan nan nan nan nan nan nan nan nan nan nan nan nan nan nan nan nan nan nan nan nan nan nan nan nan nan nan nan nan nan nan nan nan nan nan nan nan nan nan nan nan nan nan 51 50 49 48 48 48 47 47 47 46 46 44 44 42 40 40 40 40 40 39 38 36 33 33 36 38 36 33 36 41 40 42 44 43 44 44
nan nan nan nan nan nan nan nan nan nan nan nan nan nan nan nan nan nan nan nan nan nan nan nan nan nan nan nan nan nan nan nan nan nan nan nan nan nan nan nan nan nan nan nan nan nan nan nan nan nan nan 51 49 48 48 47 47 47 47 48 47 47 47 46 44 42 40 39 37 36 35 32 31 32 32 32 32 36 41 42 43 46 46 44 46
nan nan nan nan nan nan nan nan nan nan nan nan nan nan nan nan nan nan nan nan nan nan nan nan nan nan nan nan nan nan nan nan nan nan nan nan nan nan nan nan nan nan nan nan nan nan nan nan nan nan nan nan nan 50 49 48 48 48 48 48 48 47 47 46 46 44 42 41 41 41 40 37 35 33 30 31 33 34 36 39 41 42 44 45 47
nan nan nan nan nan nan nan nan nan nan nan nan nan nan nan nan nan nan nan nan nan nan nan nan nan nan nan nan nan nan nan nan nan nan nan nan nan nan nan nan nan nan nan nan nan nan nan nan nan nan nan nan nan nan 51 50 50 49 49 49 49 48 47 47 47 46 44 42 41 41 39 35 32 32 31 32 33 33 35 37 40 42 43 44 45
nan nan nan nan nan nan nan nan nan nan nan nan nan nan nan nan nan nan nan nan nan nan nan nan nan nan nan nan nan nan nan nan nan nan nan nan nan nan nan nan nan nan nan nan nan nan nan nan nan nan nan nan nan nan nan nan nan 50 50 50 50 49 48 46 46 46 46 44 42 42 42 40 38 38 38 38 38 37 36 35 37 40 42 42 41
nan nan nan nan nan nan nan nan nan nan nan nan nan nan nan nan nan nan nan nan nan nan nan nan nan nan nan nan nan nan nan nan nan nan nan nan nan nan nan nan nan nan nan nan nan nan nan nan nan nan nan nan nan nan nan nan nan nan nan nan nan 49 49 47 46 46 46 44 43 41 42 43 44 44 43 43 44 43 41 40 39 39 41 41 40
nan nan nan nan nan nan nan nan nan nan nan nan nan nan nan nan nan nan nan nan nan nan nan nan nan nan nan nan nan nan nan nan nan nan nan nan nan nan nan nan nan nan nan nan nan nan nan nan nan nan nan nan nan nan nan nan nan nan nan nan nan nan nan nan nan nan nan 44 43 42 42 42 43 44 44 44 46 46 46 45 44 43 42 43 43
nan nan nan nan nan nan nan nan nan nan nan nan nan nan nan nan nan nan nan nan nan nan nan nan nan nan nan nan nan nan nan nan nan nan nan nan nan nan nan nan nan nan nan nan nan nan nan nan nan nan nan nan nan nan nan nan nan nan nan nan nan nan nan nan nan nan nan nan nan 44 44 43 42 43 41 43 45 46 46 47 47 45 43 42 43
nan nan nan nan nan nan nan nan nan nan nan nan nan nan nan nan nan nan nan nan nan nan nan nan nan nan nan nan nan nan nan nan nan nan nan nan nan nan nan nan nan nan nan nan nan nan nan nan nan nan nan nan nan nan nan nan nan nan nan nan nan nan nan nan nan nan nan nan nan nan nan nan 45 44 43 43 44 44 45 46 47 nan nan nan 46
nan nan nan nan nan nan nan nan nan nan nan nan nan nan nan nan nan nan nan nan nan nan nan nan nan nan nan nan nan nan nan nan nan nan nan nan nan nan nan nan nan nan nan nan nan nan nan nan nan nan nan nan nan nan nan nan nan nan nan nan nan nan nan nan nan nan nan nan nan nan nan nan nan nan 46 44 44 nan nan nan nan nan nan nan 51
nan nan nan nan nan nan nan nan nan nan nan nan nan nan nan nan nan nan nan nan nan nan nan nan nan nan nan nan nan nan nan nan nan nan nan nan nan nan nan nan nan nan nan nan nan nan nan nan nan nan nan nan nan nan nan nan nan nan nan nan nan nan nan nan nan nan nan nan nan nan nan nan nan nan nan nan nan nan 51 52 53 53 53 54 54
nan nan nan nan nan nan nan nan nan nan nan nan nan nan nan nan nan nan nan nan nan nan nan nan nan nan nan nan nan nan nan nan nan nan nan nan nan nan nan nan nan nan nan nan nan nan nan nan nan nan nan nan nan nan nan nan nan nan nan nan nan nan nan nan nan nan nan nan nan nan nan nan nan nan nan nan nan nan nan nan nan nan nan nan nan
nan nan nan nan nan nan nan nan nan nan nan nan nan nan nan nan nan nan nan nan nan nan nan nan nan nan nan nan nan nan nan nan nan nan nan nan nan nan nan nan nan nan nan nan nan nan nan nan nan nan nan nan nan nan nan nan nan nan nan nan nan nan nan nan nan nan nan nan nan nan nan nan nan nan nan nan nan nan nan nan nan nan nan nan nan
Wind_Direction
252 246 232 224 236 252 254 241 235 227 220 228 229 216 217 225 225 229 229 221 221 237 250 285 299 333 320 323 345 324 317 307 313 297 305 314 299 311 324 328 337 341 328 301 252 237 218 209 201 191 202 199 178 216 60 108 86 126 226 232 217 208 218 215 211 158 170 217 226 195 190 227 229 266 258 253 263 286 308 310 311 310 312 320 324
228 206 206 233 229 253 253 251 240 231 229 229 235 231 225 227 229 226 243 234 231 234 246 243 268 290 270 68 4 334 322 310 308 292 296 304 281 293 293 322 337 354 340 10 42 81 143 218 196 200 218 217 193 187 228 98 91 56 142 251 228 205 224 241 232 218 182 201 202 196 205 234 227 245 248 245 259 276 292 303 313 317 323 323 327
222 231 208 183 224 237 258 258 250 238 235 227 235 238 234 233 234 236 239 238 235 234 235 241 267 293 328 24 57 40 346 335 310 299 297 297 290 270 276 289 315 333 355 7 20 25 23 3 354 222 234 218 186 180 184 202 176 39 42 283 246 211 233 254 255 233 212 198 233 231 239 239 250 244 245 276 281 286 285 296 317 321 327 335 333
231 231 218 184 173 236 250 257 263 254 240 231 231 237 240 238 238 244 242 241 244 233 234 229 241 285 338 10 44 38 14 349 329 313 314 306 299 292 265 284 297 328 341 354 9 14 27 29 41 15 330 252 204 189 176 171 223 228 142 181 231 216 237 252 261 270 266 249 229 262 256 254 253 258 268 270 274 281 301 312 317 328 333 332 329
226 232 228 204 181 232 231 245 262 264 252 240 234 236 237 244 245 248 248 246 246 245 234 231 229 244 350 22 44 41 19 8 348 330 316 311 311 308 292 270 276 290 311 322 349 10 46 34 46 33 27 44 111 177 200 190 167 220 262 279 329 293 253 262 266 268 263 262 240 251 266 267 276 278 284 288 287 301 309 327 337 336 334 331 325
228 227 236 238 210 225 237 233 232 245 264 258 248 244 246 244 255 252 253 253 248 254 252 240 234 232 231 16 60 53 17 17 12 356 330 307 313 310 307 288 279 282 278 290 295 306 7 55 67 51 46 48 69 31 299 113 186 185 192 215 271 282 281 260 265 266 270 277 284 234 255 278 260 279 292 311 328 327 328 332 318 318 316 308 309
236 232 231 219 214 223 241 240 238 232 237 237 230 225 233 258 260 264 263 259 256 253 259 260 247 239 229 249 158 79 41 8 15 8 353 329 318 316 310 305 292 280 276 278 277 280 280 274 260 266 293 342 96 125 182 142 106 132 114 125 228 273 265 239 217 208 236 251 255 285 264 269 297 273 293 316 316 321 326 310 300 300 300 307 304
235 240 242 233 218 213 235 237 236 239 235 236 236 230 222 214 nan 256 269 267 265 255 259 265 261 257 249 251 277 263 293 322 330 0 355 349 344 333 325 311 304 294 282 275 270 266 268 263 256 259 270 266 262 231 237 228 226 211 202 237 218 231 237 242 244 262 255 252 282 268 280 279 262 287 279 271 274 273 297 309 309 298 302 302 309
231 233 241 243 233 224 234 239 236 234 237 235 236 235 227 219 216 213 240 268 264 264 254 263 267 265 265 260 257 265 280 305 291 309 334 359 341 344 349 334 320 310 298 291 285 277 267 266 271 274 277 311 329 308 285 271 256 256 236 246 246 256 254 252 263 271 273 276 260 263 266 270 279 278 272 283 293 310 285 281 291 305 313 308 309
241 239 237 236 232 230 235 240 234 229 229 230 231 229 228 228 220 216 214 219 253 262 259 253 266 272 271 272 268 262 268 269 309 350 341 332 344 337 318 335 331 317 313 308 297 291 286 268 262 297 318 330 337 347 349 351 330 287 272 266 265 261 262 263 266 271 274 274 278 277 271 274 279 287 288 289 291 257 244 266 283 297 289 299 299
234 235 236 232 230 232 235 240 237 230 226 230 230 230 230 226 224 220 219 218 216 232 261 266 257 265 270 272 274 271 268 270 323 335 344 353 328 320 310 304 316 323 312 306 308 301 286 279 268 253 256 279 298 334 339 345 340 339 315 297 289 283 268 268 264 269 274 276 272 272 276 276 282 284 286 280 273 277 277 276 285 282 297 300 295
235 234 234 233 232 232 233 235 237 232 228 228 231 233 234 237 238 233 231 228 233 229 226 252 267 264 268 270 269 265 263 285 310 321 330 339 330 302 292 284 279 303 313 309 301 293 290 285 271 268 259 254 260 271 298 328 332 337 343 317 300 301 292 283 275 263 263 264 263 271 268 278 283 279 277 276 274 257 262 272 288 298 297 291 293
238 237 235 233 230 230 230 228 229 230 229 227 229 234 242 247 248 245 245 251 252 248 249 238 238 255 263 270 273 270 261 286 302 312 318 326 332 315 268 270 275 262 276 295 296 287 280 274 266 260 nan 262 253 259 267 272 301 339 350 5 356 315 295 293 289 282 272 266 264 262 278 272 271 281 291 290 276 272 264 263 273 285 293 297 300
242 240 237 233 229 227 226 225 226 228 230 232 230 235 247 251 249 243 232 233 241 241 238 240 237 230 230 245 258 265 268 277 298 302 310 316 319 302 260 270 268 265 262 262 263 271 271 268 265 257 254 250 250 253 258 259 257 255 252 247 246 236 247 286 287 274 262 265 270 274 276 276 286 281 291 282 278 283 283 283 280 276 279 295 297
245 244 239 236 233 231 228 226 225 228 229 234 238 240 243 244 247 239 221 220 226 228 229 235 240 240 232 224 232 248 257 282 290 298 300 306 309 292 260 257 253 255 258 256 256 258 258 257 256 256 253 254 255 256 nan 259 258 258 259 260 259 253 251 249 258 264 265 260 263 271 277 285 291 291 284 285 288 288 289 291 289 286 286 280 276
246 244 240 236 235 235 231 229 227 226 229 232 236 239 239 234 232 235 229 228 235 234 230 231 232 237 240 236 230 228 241 273 288 300 304 301 304 272 261 257 256 257 259 257 256 255 255 257 253 249 248 251 257 273 264 258 260 261 260 255 255 259 262 273 283 276 274 274 275 279 283 300 319 313 307 303 298 291 285 274 270 272 273 274 286
244 239 236 235 233 233 232 231 228 226 225 229 233 235 232 230 231 236 235 237 237 233 231 231 232 230 231 235 234 234 230 232 nan nan 291 293 276 265 264 257 253 256 261 262 260 259 nan 258 257 253 249 247 252 nan nan 254 250 256 259 257 253 251 257 264 284 303 304 305 314 319 326 334 344 352 346 349 321 292 279 277 284 285 282 282 285
247 242 237 236 237 236 237 240 240 237 231 232 232 233 232 231 233 237 236 234 237 239 236 233 231 229 226 223 226 228 229 225 224 238 250 278 nan 284 278 274 272 269 265 263 260 nan nan 277 271 264 261 255 258 263 264 259 250 249 252 253 252 252 254 260 261 272 300 313 321 325 317 302 289 281 287 301 312 296 297 303 297 285 286 289 288
nan nan 242 239 240 243 243 242 243 239 235 235 238 237 234 232 232 235 235 233 235 238 237 232 229 230 230 229 223 233 238 231 218 262 284 280 276 265 268 270 273 273 268 261 259 259 259 264 279 275 270 269 nan nan 274 270 260 256 253 250 247 246 259 262 263 261 264 267 270 274 273 286 290 291 296 315 311 297 296 300 291 289 288 287 287
nan nan nan nan nan 240 244 243 241 238 235 237 241 243 243 235 232 233 233 235 234 237 238 236 233 231 232 234 235 249 252 254 249 246 244 256 269 263 258 257 260 263 261 256 252 255 257 260 266 nan nan nan nan nan nan nan 275 266 263 260 253 239 246 255 260 262 261 265 267 273 279 279 281 284 287 290 293 295 300 299 297 294 291 290 290
nan nan nan nan nan nan nan nan 241 239 237 237 240 242 242 239 234 233 232 231 234 234 234 237 238 239 239 239 244 252 244 234 230 240 243 249 265 271 260 265 263 261 261 263 262 261 260 260 260 271 nan nan nan nan nan nan 284 274 274 273 270 254 246 251 255 262 261 263 264 266 270 273 277 281 284 288 290 291 294 297 298 297 297 298 299
nan nan nan nan nan nan nan nan nan nan 243 240 240 237 240 240 237 236 236 236 233 231 232 235 237 239 241 242 247 250 242 239 237 247 260 263 268 277 263 263 267 263 262 264 265 265 267 265 263 270 282 285 288 290 292 290 294 283 285 295 289 267 257 257 254 256 260 262 263 264 264 266 268 273 276 279 282 284 286 289 292 295 298 302 305
nan nan nan nan nan nan nan nan nan nan nan 246 243 238 238 240 241 239 236 236 235 231 231 231 233 237 239 243 248 250 248 245 245 243 246 248 251 260 263 256 258 260 260 263 266 264 263 263 263 270 278 282 285 288 289 295 287 285 300 299 295 289 272 262 260 261 262 264 265 266 268 269 268 269 270 270 272 275 278 282 286 291 295 300 303
nan nan nan nan nan nan nan nan nan nan nan nan nan nan nan 241 243 243 244 243 238 235 234 231 230 231 232 234 239 243 244 246 248 251 253 261 264 272 272 270 260 260 257 255 254 255 256 260 259 259 266 268 266 267 272 278 277 287 293 295 293 284 272 271 271 271 268 267 268 267 267 267 265 265 266 267 266 269 274 277 282 288 293 296 301
nan nan nan nan nan nan nan nan nan nan nan nan nan nan nan nan nan 240 242 244 243 241 238 234 229 227 229 234 241 244 248 245 246 249 256 259 263 266 270 271 270 271 264 266 263 255 250 244 243 245 247 250 256 259 261 264 269 268 268 269 265 263 266 270 273 272 271 272 272 270 268 269 270 267 266 268 267 267 267 269 272 277 285 292 296
nan nan nan nan nan nan nan nan nan nan nan nan nan nan nan nan nan 242 nan nan 244 244 242 238 234 232 232 232 234 236 242 252 251 249 249 254 257 259 265 268 270 275 277 266 263 257 250 243 239 241 245 248 252 257 259 262 267 273 275 273 270 271 271 269 268 269 271 271 271 273 272 268 267 267 267 267 269 271 272 271 268 267 272 277 281
nan nan nan nan nan nan nan nan nan nan nan nan nan nan nan nan nan nan nan nan nan nan nan nan 239 239 239 239 237 236 235 244 252 253 253 251 254 254 258 257 260 258 261 263 264 263 262 261 260 257 257 255 254 254 253 252 255 261 265 267 268 268 268 270 270 269 267 268 268 268 267 267 266 265 267 269 271 274 277 278 276 273 271 269 268
nan nan nan nan nan nan nan nan nan nan nan nan nan nan nan nan nan nan nan nan nan nan nan nan nan nan 242 245 246 244 241 242 246 252 249 248 246 245 251 259 263 265 262 262 264 266 266 265 265 264 261 258 257 256 258 260 263 262 263 266 267 267 267 268 267 267 267 268 266 266 266 268 268 269 268 270 273 275 277 279 279 276 272 266 263
nan nan nan nan nan nan nan nan nan nan nan nan nan nan nan nan nan nan nan nan nan nan nan nan nan nan nan nan 245 244 246 245 247 252 249 250 254 256 254 256 257 258 258 249 255 263 269 270 269 268 268 266 263 262 261 260 260 262 261 262 265 266 266 266 268 270 271 272 274 275 274 273 273 273 273 274 276 278 279 281 281 279 273 272 270
nan nan nan nan nan nan nan nan nan nan nan nan nan nan nan nan nan nan nan nan nan nan nan nan nan nan nan nan nan nan 252 251 244 235 236 241 247 258 266 267 267 266 260 252 259 262 268 272 274 274 273 272 269 267 266 265 263 262 263 264 264 265 267 268 269 270 272 275 277 279 281 282 280 279 279 280 279 280 282 285 281 280 278 277 274
nan nan nan nan nan nan nan nan nan nan nan nan nan nan nan nan nan nan nan nan nan nan nan nan nan nan nan nan nan nan nan nan 248 245 243 244 248 252 253 257 259 260 258 259 263 268 268 271 273 276 278 277 275 272 269 268 266 264 264 265 265 266 268 268 269 268 269 271 273 275 277 280 280 276 273 271 268 269 272 276 280 283 286 286 286
nan nan nan nan nan nan nan nan nan nan nan nan nan nan nan nan nan nan nan nan nan nan nan nan nan nan nan nan nan nan nan nan nan nan 250 249 249 250 253 257 261 264 266 273 272 273 271 269 270 273 276 277 277 273 272 270 268 268 267 267 267 267 269 270 269 268 268 270 272 272 272 270 268 267 266 266 267 269 273 276 280 283 283 282 283
nan nan nan nan nan nan nan nan nan nan nan nan nan nan nan nan nan nan nan nan nan nan nan nan nan nan nan nan nan nan nan nan nan nan nan nan nan nan 256 259 266 271 272 272 272 270 270 270 269 270 273 274 273 272 273 273 273 274 276 277 275 274 273 270 267 268 270 272 273 275 276 275 273 271 271 271 272 273 277 280 281 277 269 265 264
nan nan nan nan nan nan nan nan nan nan nan nan nan nan nan nan nan nan nan nan nan nan nan nan nan nan nan nan nan nan nan nan nan nan nan nan nan nan nan nan nan nan 276 271 269 269 269 270 269 269 269 271 270 271 271 272 273 274 278 284 286 281 277 271 270 271 273 275 274 275 275 274 272 272 271 273 274 272 270 273 273 271 269 270 266
nan nan nan nan nan nan nan nan nan nan nan nan nan nan nan nan nan nan nan nan nan nan nan nan nan nan nan nan nan nan nan nan nan nan nan nan nan nan nan nan nan nan nan 270 268 265 266 266 265 265 267 268 270 271 272 273 276 278 280 284 285 282 275 272 272 273 273 269 266 267 271 274 275 275 273 272 272 268 262 259 259 261 261 262 262
nan nan nan nan nan nan nan nan nan nan nan nan nan nan nan nan nan nan nan nan nan nan nan nan nan nan nan nan nan nan nan nan nan nan nan nan nan nan nan nan nan nan nan 261 264 266 266 265 264 263 262 262 264 268 270 272 276 278 279 279 279 277 274 271 270 270 271 271 270 271 271 272 273 274 274 273 273 270 262 257 255 254 253 254 256
nan nan nan nan nan nan nan nan nan nan nan nan nan nan nan nan nan nan nan nan nan nan nan nan nan nan nan nan nan nan nan nan nan nan nan nan nan nan nan nan nan nan nan nan 257 256 256 257 258 258 258 259 261 264 265 266 265 267 268 270 271 274 275 274 273 273 272 271 271 271 270 269 268 268 271 271 270 268 267 265 263 261 259 257 256
nan nan nan nan nan nan nan nan nan nan nan nan nan nan nan nan nan nan nan nan nan nan nan nan nan nan nan nan nan nan nan nan nan nan nan nan nan nan nan nan nan nan nan nan nan nan 258 259 258 257 255 255 254 254 255 258 260 264 269 272 274 275 277 276 277 277 278 277 276 273 272 270 267 265 267 269 266 265 267 267 265 265 265 265 265
nan nan nan nan nan nan nan nan nan nan nan nan nan nan nan nan nan nan nan nan nan nan nan nan nan nan nan nan nan nan nan nan nan nan nan nan nan nan nan nan nan nan nan nan nan nan nan nan nan 258 257 256 254 254 255 257 259 260 259 260 262 266 269 271 273 276 278 279 278 274 271 271 271 271 273 273 268 266 266 263 262 264 265 265 268
nan nan nan nan nan nan nan nan nan nan nan nan nan nan nan nan nan nan nan nan nan nan nan nan nan nan nan nan nan nan nan nan nan nan nan nan nan nan nan nan nan nan nan nan nan nan nan nan nan nan nan 258 257 255 255 255 256 257 259 260 261 261 260 259 260 264 267 271 272 269 269 272 275 277 278 278 272 267 265 261 258 261 264 266 269
nan nan nan nan nan nan nan nan nan nan nan nan nan nan nan nan nan nan nan nan nan nan nan nan nan nan nan nan nan nan nan nan nan nan nan nan nan nan nan nan nan nan nan nan nan nan nan nan nan nan nan nan nan 258 256 255 254 254 256 259 262 263 263 262 261 261 259 258 256 253 253 256 260 265 272 274 273 271 267 262 260 263 266 269 272
nan nan nan nan nan nan nan nan nan nan nan nan nan nan nan nan nan nan nan nan nan nan nan nan nan nan nan nan nan nan nan nan nan nan nan nan nan nan nan nan nan nan nan nan nan nan nan nan nan nan nan nan nan nan 258 257 255 254 254 256 259 260 261 261 260 259 258 257 254 252 250 251 256 261 264 267 270 273 270 265 263 263 267 271 275
nan nan nan nan nan nan nan nan nan nan nan nan nan nan nan nan nan nan nan nan nan nan nan nan nan nan nan nan nan nan nan nan nan nan nan nan nan nan nan nan nan nan nan nan nan nan nan nan nan nan nan nan nan nan nan nan nan 255 255 255 256 258 259 259 258 258 259 258 256 252 250 252 256 262 268 273 275 275 274 270 267 268 269 272 273
nan nan nan nan nan nan nan nan nan nan nan nan nan nan nan nan nan nan nan nan nan nan nan nan nan nan nan nan nan nan nan nan nan nan nan nan nan nan nan nan nan nan nan nan nan nan nan nan nan nan nan nan nan nan nan nan nan nan nan nan nan 256 259 260 259 257 257 257 258 257 256 257 260 263 268 272 275 275 273 271 269 267 267 268 272
nan nan nan nan nan nan nan nan nan nan nan nan nan nan nan nan nan nan nan nan nan nan nan nan nan nan nan nan nan nan nan nan nan nan nan nan nan nan nan nan nan nan nan nan nan nan nan nan nan nan nan nan nan nan nan nan nan nan nan nan nan nan nan nan nan nan nan 258 259 260 261 262 263 265 266 267 269 270 269 268 267 265 264 269 273
nan nan nan nan nan nan nan nan nan nan nan nan nan nan nan nan nan nan nan nan nan nan nan nan nan nan nan nan nan nan nan nan nan nan nan nan nan nan nan nan nan nan nan nan nan nan nan nan nan nan nan nan nan nan nan nan nan nan nan nan nan nan nan nan nan nan nan nan nan 262 261 261 262 263 262 262 263 266 267 267 267 268 269 269 273
nan nan nan nan nan nan nan nan nan nan nan nan nan nan nan nan nan nan nan nan nan nan nan nan nan nan nan nan nan nan nan nan nan nan nan nan nan nan nan nan nan nan nan nan nan nan nan nan nan nan nan nan nan nan nan nan nan nan nan nan nan nan nan nan nan nan nan nan nan nan nan nan 262 263 263 262 263 265 268 269 269 nan nan nan 270
nan nan nan nan nan nan nan nan nan nan nan nan nan nan nan nan nan nan nan nan nan nan nan nan nan nan nan nan nan nan nan nan nan nan nan nan nan nan nan nan nan nan nan nan nan nan nan nan nan nan nan nan nan nan nan nan nan nan nan nan nan nan nan nan nan nan nan nan nan nan nan nan nan nan 265 264 264 nan nan nan nan nan nan nan 270
nan nan nan nan nan nan nan nan nan nan nan nan nan nan nan nan nan nan nan nan nan nan nan nan nan nan nan nan nan nan nan nan nan nan nan nan nan nan nan nan nan nan nan nan nan nan nan nan nan nan nan nan nan nan nan nan nan nan nan nan nan nan nan nan nan nan nan nan nan nan nan nan nan nan nan nan nan nan 265 266 267 269 270 270 271
nan nan nan nan nan nan nan nan nan nan nan nan nan nan nan nan nan nan nan nan nan nan nan nan nan nan nan nan nan nan nan nan nan nan nan nan nan nan nan nan nan nan nan nan nan nan nan nan nan nan nan nan nan nan nan nan nan nan nan nan nan nan nan nan nan nan nan nan nan nan nan nan nan nan nan nan nan nan nan nan nan nan nan nan nan
nan nan nan nan nan nan nan nan nan nan nan nan nan nan nan nan nan nan nan nan nan nan nan nan nan nan nan nan nan nan nan nan nan nan nan nan nan nan nan nan nan nan nan nan nan nan nan nan nan nan nan nan nan nan nan nan nan nan nan nan nan nan nan nan nan nan nan nan nan nan nan nan nan nan nan nan nan nan nan nan nan nan nan nan nan